Durant, OK

7:07 AM CDT on July 22, 2017 (GMT -0500)
Eaker

Weather History for KDUA - December, 2012

Change the Weather History Date:

Tuesday, December 4, 2012

  Actual Average (KMLC) Record (KMLC)
Temperature  
Mean Temperature 56 °F -  
Max Temperature 69 °F 55 °F 73 °F (1956)
Min Temperature 44 °F 31 °F 18 °F (1978)
Degree Days  
Heating Degree Days 8    
Growing Degree Days 6 (Base 50)    
Moisture  
Dew Point 40 °F    
Average Humidity 52    
Maximum Humidity 94    
Minimum Humidity 17    
Precipitation  
Precipitation 0.03 in - - ()
Sea Level Pressure  
Sea Level Pressure 30.14 in    
Wind  
Wind Speed 9 mph (NNW)    
Max Wind Speed 23 mph    
Max Gust Speed 28 mph    
Visibility 10 miles    
Events      
Averages and records for this station are not official NWS values.
T = Trace of Precipitation, MM = Missing Value Source: NWS Daily Summary

Daily Weather History Graph

Daily Weather History Graph

Search for Another Location

Airport or City:

Trip Planner

Search our weather history database for the weather conditions in past years. The results will help you decide how hot, cold, wet, or windy it might be!

Date:

Astronomy

Dec. 04, 2012 Rise Set
Actual Time 7:15 AM CST 5:16 PM CST
Civil Twilight 6:48 AM CST 5:43 PM CST
Nautical Twilight 6:17 AM CST 6:14 PM CST
Astronomical Twilight 5:46 AM CST 6:45 PM CST
Moon 10:54 PM CST (12/4) 11:19 AM CST (12/4)
Length of Visible Light 10h 55m
Length of Day
10h 00m
Waning Gibbous, 69% of the Moon is Illuminated
Dec 4
Waning Gibbous
Dec 6
Last Quarter
Dec 13
New
Dec 19
First Quarter
Dec 28
Full

Hourly Weather History & Observations

Time (CST) Temp. Windchill Dew Point Humidity Pressure Visibility Wind Dir Wind Speed Gust Speed Precip Events Conditions
12:15 AM 62.6 °F - 57.2 °F 82% 29.98 in 10.0 mi South 5.8 mph - N/A   Clear
12:35 AM 60.8 °F - 57.2 °F 88% 29.98 in 10.0 mi South 6.9 mph - N/A   Clear
12:55 AM 60.8 °F - 57.2 °F 88% 29.96 in 10.0 mi SSE 10.4 mph - N/A   Clear
1:15 AM 62.6 °F - 59.0 °F 88% 29.96 in 10.0 mi South 6.9 mph - N/A   Clear
1:35 AM 62.6 °F - 57.2 °F 82% 29.96 in 10.0 mi South 6.9 mph - N/A   Clear
1:55 AM 62.6 °F - 59.0 °F 88% 29.97 in 10.0 mi South 9.2 mph - N/A   Clear
2:15 AM 62.6 °F - 59.0 °F 88% 29.97 in 10.0 mi South 6.9 mph - N/A   Clear
2:35 AM 62.6 °F - 59.0 °F 88% 29.97 in 10.0 mi Calm Calm - N/A   Clear
2:55 AM 60.8 °F - 57.2 °F 88% 29.98 in 10.0 mi Calm Calm - N/A   Clear
3:15 AM 59.0 °F - 57.2 °F 94% 29.99 in 10.0 mi Calm Calm - N/A   Clear
3:35 AM 60.8 °F - 59.0 °F 94% 29.99 in 10.0 mi SW 3.5 mph - N/A   Scattered Clouds
3:55 AM 60.8 °F - 59.0 °F 94% 29.99 in 10.0 mi Calm Calm - N/A   Mostly Cloudy
4:15 AM 60.8 °F - 59.0 °F 94% 29.99 in 10.0 mi Calm Calm - N/A   Overcast
4:35 AM 60.8 °F - 59.0 °F 94% 29.98 in 10.0 mi Calm Calm - N/A   Mostly Cloudy
4:55 AM 60.8 °F - 59.0 °F 94% 29.99 in 10.0 mi Calm Calm - N/A   Overcast
5:15 AM 60.8 °F - 59.0 °F 94% 30.00 in 10.0 mi NNW 3.5 mph - N/A   Overcast
5:35 AM 60.8 °F - 59.0 °F 94% 30.01 in 10.0 mi North 4.6 mph - N/A   Overcast
5:55 AM 60.8 °F - 57.2 °F 88% 30.02 in 10.0 mi North 13.8 mph - N/A   Overcast
6:15 AM 60.8 °F - 50.0 °F 68% 30.04 in 10.0 mi WNW 11.5 mph - N/A   Mostly Cloudy
6:35 AM 59.0 °F - 46.4 °F 63% 30.05 in 10.0 mi NNW 11.5 mph - N/A   Mostly Cloudy
6:55 AM 59.0 °F - 46.4 °F 63% 30.07 in 10.0 mi NNW 10.4 mph - N/A   Scattered Clouds
7:15 AM 59.0 °F - 46.4 °F 63% 30.08 in 10.0 mi NW 13.8 mph 19.6 mph N/A   Clear
7:35 AM 59.0 °F - 46.4 °F 63% 30.10 in 10.0 mi NW 15.0 mph 23.0 mph N/A   Mostly Cloudy
7:55 AM 60.8 °F - 46.4 °F 59% 30.11 in 10.0 mi NW 15.0 mph - N/A   Mostly Cloudy
8:15 AM 60.8 °F - 46.4 °F 59% 30.12 in 10.0 mi NW 17.3 mph - N/A   Overcast
8:35 AM 60.8 °F - 46.4 °F 59% 30.13 in 10.0 mi North 16.1 mph - N/A   Overcast
8:55 AM 60.8 °F - 46.4 °F 59% 30.13 in 10.0 mi North 18.4 mph 23.0 mph N/A   Overcast
9:15 AM 60.8 °F - 44.6 °F 55% 30.15 in 10.0 mi North 18.4 mph - N/A   Mostly Cloudy
9:35 AM 60.8 °F - 44.6 °F 55% 30.16 in 10.0 mi NW 15.0 mph - N/A   Scattered Clouds
10:15 AM 60.8 °F - 42.8 °F 52% 30.18 in 10.0 mi NNE 17.3 mph 21.9 mph N/A   Clear
10:35 AM 62.6 °F - 42.8 °F 48% 30.18 in 10.0 mi NNW 16.1 mph 21.9 mph N/A   Clear
10:55 AM 62.6 °F - 42.8 °F 48% 30.19 in 10.0 mi North 12.7 mph 17.3 mph N/A   Clear
11:15 AM 64.4 °F - 42.8 °F 45% 30.19 in 10.0 mi NNW 18.4 mph 25.3 mph N/A   Clear
11:35 AM 64.4 °F - 41.0 °F 42% 30.20 in 10.0 mi NNW 16.1 mph 23.0 mph N/A   Clear
11:55 AM 66.2 °F - 41.0 °F 40% 30.19 in 10.0 mi NNW 12.7 mph - N/A   Clear
12:15 PM 68.0 °F - 39.2 °F 35% 30.18 in 10.0 mi NNW 20.7 mph 25.3 mph 0.03 in   Clear
12:35 PM 69.8 °F - 37.4 °F 31% 30.17 in 10.0 mi North 21.9 mph 26.5 mph 0.03 in   Clear
12:55 PM 69.8 °F - 35.6 °F 28% 30.17 in 10.0 mi NNE 18.4 mph 25.3 mph 0.03 in   Clear
1:15 PM 69.8 °F - 35.6 °F 28% 30.17 in 10.0 mi North 15.0 mph 23.0 mph N/A   Clear
1:35 PM 69.8 °F - 32.0 °F 25% 30.17 in 10.0 mi NNE 23.0 mph 27.6 mph N/A   Clear
1:55 PM 69.8 °F - 32.0 °F 25% 30.17 in 10.0 mi NNE 19.6 mph 25.3 mph N/A   Clear
2:15 PM 69.8 °F - 32.0 °F 25% 30.17 in 10.0 mi NW 17.3 mph 23.0 mph N/A   Clear
2:35 PM 69.8 °F - 32.0 °F 25% 30.17 in 10.0 mi NNW 16.1 mph 21.9 mph N/A   Clear
2:55 PM 69.8 °F - 26.6 °F 20% 30.17 in 10.0 mi North 18.4 mph 27.6 mph N/A   Clear
3:15 PM 69.8 °F - 26.6 °F 20% 30.17 in 10.0 mi NNE 17.3 mph 25.3 mph N/A   Clear
3:35 PM 69.8 °F - 26.6 °F 20% 30.18 in 10.0 mi NNE 18.4 mph - N/A   Clear
3:55 PM 69.8 °F - 28.4 °F 21% 30.19 in 10.0 mi NW 12.7 mph 23.0 mph N/A   Clear
4:15 PM 68.0 °F - 24.8 °F 20% 30.20 in 10.0 mi NNE 13.8 mph 20.7 mph N/A   Clear
4:35 PM 68.0 °F - 21.2 °F 17% 30.20 in 10.0 mi NNE 16.1 mph 23.0 mph N/A   Clear
4:55 PM 64.4 °F - 23.0 °F 21% 30.21 in 10.0 mi North 13.8 mph 18.4 mph N/A   Clear
5:15 PM 62.6 °F - 23.0 °F 22% 30.22 in 10.0 mi NNW 9.2 mph - N/A   Clear
5:35 PM 60.8 °F - 24.8 °F 25% 30.22 in 10.0 mi North 6.9 mph - N/A   Clear
5:55 PM 57.2 °F - 26.6 °F 31% 30.23 in 10.0 mi NNW 8.1 mph - N/A   Clear
6:15 PM 55.4 °F - 26.6 °F 33% 30.23 in 10.0 mi WNW 6.9 mph - N/A   Clear
6:35 PM 53.6 °F - 26.6 °F 35% 30.24 in 10.0 mi WNW 8.1 mph - N/A   Clear
6:55 PM 55.4 °F - 24.8 °F 31% 30.23 in 10.0 mi North 9.2 mph - N/A   Clear
7:15 PM 55.4 °F - 23.0 °F 29% 30.24 in 10.0 mi North 10.4 mph - N/A   Clear
7:35 PM 55.4 °F - 23.0 °F 29% 30.24 in 10.0 mi NNE 10.4 mph - N/A   Clear
7:55 PM 53.6 °F - 24.8 °F 33% 30.25 in 10.0 mi NNW 8.1 mph - N/A   Clear
8:15 PM 53.6 °F - 24.8 °F 33% 30.26 in 10.0 mi North 6.9 mph - N/A   Clear
8:35 PM 51.8 °F - 24.8 °F 35% 30.26 in 10.0 mi NNW 8.1 mph - N/A   Clear
8:55 PM 51.8 °F - 24.8 °F 35% 30.27 in 10.0 mi NNW 6.9 mph - N/A   Clear
9:15 PM 50.0 °F - 24.8 °F 37% 30.27 in 10.0 mi North 5.8 mph - N/A   Clear
9:35 PM 50.0 °F - 24.8 °F 37% 30.28 in 10.0 mi NW 6.9 mph - N/A   Clear
9:55 PM 46.4 °F 42.4 °F 26.6 °F 46% 30.28 in 10.0 mi NNW 8.1 mph - N/A   Clear
10:15 PM 46.4 °F 41.9 °F 28.4 °F 50% 30.28 in 10.0 mi NNE 9.2 mph - N/A   Clear
10:35 PM 50.0 °F - 28.4 °F 43% 30.28 in 10.0 mi NNE 8.1 mph - N/A   Clear
10:55 PM 48.2 °F - 28.4 °F 46% 30.29 in 10.0 mi NNE 9.2 mph - N/A   Clear
11:15 PM 48.2 °F - 28.4 °F 46% 30.29 in 10.0 mi NNE 8.1 mph - N/A   Clear
11:35 PM 44.6 °F 41.4 °F 30.2 °F 57% 30.29 in 10.0 mi NNE 5.8 mph - N/A   Clear
11:55 PM 44.6 °F 39.7 °F 30.2 °F 57% 30.28 in 10.0 mi NNE 9.2 mph - N/A   Clear